#datetime,building,power
2024-03-12T00:00:00,axn,28.32
2024-03-12T00:01:00,axn,28.52
2024-03-12T00:02:00,axn,28.93
2024-03-12T00:03:00,axn,28.23
2024-03-12T00:04:00,axn,28.23
2024-03-12T00:05:00,axn,28.27
2024-03-12T00:06:00,axn,28.18
2024-03-12T00:07:00,axn,28.17
2024-03-12T00:08:00,axn,28.58
2024-03-12T00:09:00,axn,28.12
2024-03-12T00:10:00,axn,28.23
2024-03-12T00:11:00,axn,28.13
2024-03-12T00:12:00,axn,28.14
2024-03-12T00:13:00,axn,28.35
2024-03-12T00:14:00,axn,28.29
2024-03-12T00:15:00,axn,28.21
2024-03-12T00:16:00,axn,28.18
2024-03-12T00:17:00,axn,28.24
2024-03-12T00:18:00,axn,28.28
2024-03-12T00:19:00,axn,27.85
2024-03-12T00:20:00,axn,28.04
2024-03-12T00:21:00,axn,27.81
2024-03-12T00:22:00,axn,27.97
2024-03-12T00:23:00,axn,27.96
2024-03-12T00:24:00,axn,27.94
2024-03-12T00:25:00,axn,27.93
2024-03-12T00:26:00,axn,27.93
2024-03-12T00:27:00,axn,28.38
2024-03-12T00:28:00,axn,27.96
2024-03-12T00:29:00,axn,27.79
2024-03-12T00:30:00,axn,27.85
2024-03-12T00:31:00,axn,27.86
2024-03-12T00:32:00,axn,28.33
2024-03-12T00:33:00,axn,28.26
2024-03-12T00:34:00,axn,27.89
2024-03-12T00:35:00,axn,28.15
2024-03-12T00:36:00,axn,28.09
2024-03-12T00:37:00,axn,28.26
2024-03-12T00:38:00,axn,28.57
2024-03-12T00:39:00,axn,28.25
2024-03-12T00:40:00,axn,28.38
2024-03-12T00:41:00,axn,28.57
2024-03-12T00:42:00,axn,28.76
2024-03-12T00:43:00,axn,28.37
2024-03-12T00:44:00,axn,28.12
2024-03-12T00:45:00,axn,28.01
2024-03-12T00:46:00,axn,28.14
2024-03-12T00:47:00,axn,31.17
2024-03-12T00:48:00,axn,31.31
2024-03-12T00:49:00,axn,28.23
2024-03-12T00:50:00,axn,28.05
2024-03-12T00:51:00,axn,27.99
2024-03-12T00:52:00,axn,27.93
2024-03-12T00:53:00,axn,27.93
2024-03-12T00:54:00,axn,28.09
2024-03-12T00:55:00,axn,28.14
2024-03-12T00:56:00,axn,28.34
2024-03-12T00:57:00,axn,28.50
2024-03-12T00:58:00,axn,28.82
2024-03-12T00:59:00,axn,27.48
2024-03-12T01:00:00,axn,27.52
2024-03-12T01:01:00,axn,27.55
2024-03-12T01:02:00,axn,27.66
2024-03-12T01:03:00,axn,27.49
2024-03-12T01:04:00,axn,27.61
2024-03-12T01:05:00,axn,27.46
2024-03-12T01:06:00,axn,27.56
2024-03-12T01:07:00,axn,27.46
2024-03-12T01:08:00,axn,27.50
2024-03-12T01:09:00,axn,27.59
2024-03-12T01:10:00,axn,27.70
2024-03-12T01:11:00,axn,27.51
2024-03-12T01:12:00,axn,27.55
2024-03-12T01:13:00,axn,27.44
2024-03-12T01:14:00,axn,27.52
2024-03-12T01:15:00,axn,27.50
2024-03-12T01:16:00,axn,42.43
2024-03-12T01:17:00,axn,27.50
2024-03-12T01:18:00,axn,27.83
2024-03-12T01:19:00,axn,27.59
2024-03-12T01:20:00,axn,27.57
2024-03-12T01:21:00,axn,27.52
2024-03-12T01:22:00,axn,27.69
2024-03-12T01:23:00,axn,27.85
2024-03-12T01:24:00,axn,38.26
2024-03-12T01:25:00,axn,38.28
2024-03-12T01:26:00,axn,38.41
2024-03-12T01:27:00,axn,38.56
2024-03-12T01:28:00,axn,27.85
2024-03-12T01:29:00,axn,27.82
2024-03-12T01:30:00,axn,27.75
2024-03-12T01:31:00,axn,27.86
2024-03-12T01:32:00,axn,27.82
2024-03-12T01:33:00,axn,27.74
2024-03-12T01:34:00,axn,27.73
2024-03-12T01:35:00,axn,27.56
2024-03-12T01:36:00,axn,27.81
2024-03-12T01:37:00,axn,27.94
2024-03-12T01:38:00,axn,28.24
2024-03-12T01:39:00,axn,27.81
2024-03-12T01:40:00,axn,27.82
2024-03-12T01:41:00,axn,27.83
2024-03-12T01:42:00,axn,27.95
2024-03-12T01:43:00,axn,27.94
2024-03-12T01:44:00,axn,27.90
2024-03-12T01:45:00,axn,27.96
2024-03-12T01:46:00,axn,28.01
2024-03-12T01:47:00,axn,28.71
2024-03-12T01:48:00,axn,27.96
2024-03-12T01:49:00,axn,27.84
2024-03-12T01:50:00,axn,28.06
2024-03-12T01:51:00,axn,28.09
2024-03-12T01:52:00,axn,28.02
2024-03-12T01:53:00,axn,28.15
2024-03-12T01:54:00,axn,28.16
2024-03-12T01:55:00,axn,28.17
2024-03-12T01:56:00,axn,28.22
2024-03-12T01:57:00,axn,27.95
2024-03-12T01:58:00,axn,27.99
2024-03-12T01:59:00,axn,27.63
2024-03-12T02:00:00,axn,27.72
2024-03-12T02:01:00,axn,27.71
2024-03-12T02:02:00,axn,27.58
2024-03-12T02:03:00,axn,27.46
2024-03-12T02:04:00,axn,27.30
2024-03-12T02:05:00,axn,27.03
2024-03-12T02:06:00,axn,27.07
2024-03-12T02:07:00,axn,27.43
2024-03-12T02:08:00,axn,27.22
2024-03-12T02:09:00,axn,27.26
2024-03-12T02:10:00,axn,26.98
2024-03-12T02:11:00,axn,27.03
2024-03-12T02:12:00,axn,27.03
2024-03-12T02:13:00,axn,27.47
2024-03-12T02:14:00,axn,27.12
2024-03-12T02:15:00,axn,27.39
2024-03-12T02:16:00,axn,27.08
2024-03-12T02:17:00,axn,27.06
2024-03-12T02:18:00,axn,27.32
2024-03-12T02:19:00,axn,26.95
2024-03-12T02:20:00,axn,27.09
2024-03-12T02:21:00,axn,27.26
2024-03-12T02:22:00,axn,27.05
2024-03-12T02:23:00,axn,26.95
2024-03-12T02:24:00,axn,26.98
2024-03-12T02:25:00,axn,27.74
2024-03-12T02:26:00,axn,27.15
2024-03-12T02:27:00,axn,27.39
2024-03-12T02:28:00,axn,26.99
2024-03-12T02:29:00,axn,27.05
2024-03-12T02:30:00,axn,42.00
2024-03-12T02:31:00,axn,41.65
2024-03-12T02:32:00,axn,41.53
2024-03-12T02:33:00,axn,41.38
2024-03-12T02:34:00,axn,41.19
2024-03-12T02:35:00,axn,41.34
2024-03-12T02:36:00,axn,27.25
2024-03-12T02:37:00,axn,27.01
2024-03-12T02:38:00,axn,27.01
2024-03-12T02:39:00,axn,27.04
2024-03-12T02:40:00,axn,27.02
2024-03-12T02:41:00,axn,27.12
2024-03-12T02:42:00,axn,27.06
2024-03-12T02:43:00,axn,26.89
2024-03-12T02:44:00,axn,27.31
2024-03-12T02:45:00,axn,26.69
2024-03-12T02:46:00,axn,27.23
2024-03-12T02:47:00,axn,27.04
2024-03-12T02:48:00,axn,26.92
2024-03-12T02:49:00,axn,27.52
2024-03-12T02:50:00,axn,26.97
2024-03-12T02:51:00,axn,27.31
2024-03-12T02:52:00,axn,27.23
2024-03-12T02:53:00,axn,27.24
2024-03-12T02:54:00,axn,27.27
2024-03-12T02:55:00,axn,32.02
2024-03-12T02:56:00,axn,31.65
2024-03-12T02:57:00,axn,31.68
2024-03-12T02:58:00,axn,27.17
2024-03-12T02:59:00,axn,29.86
2024-03-12T03:00:00,axn,29.89
2024-03-12T03:01:00,axn,27.04
2024-03-12T03:02:00,axn,26.93
2024-03-12T03:03:00,axn,27.07
2024-03-12T03:04:00,axn,27.04
2024-03-12T03:05:00,axn,26.98
2024-03-12T03:06:00,axn,27.03
2024-03-12T03:07:00,axn,26.92
2024-03-12T03:08:00,axn,27.00
2024-03-12T03:09:00,axn,26.80
2024-03-12T03:10:00,axn,26.81
2024-03-12T03:11:00,axn,26.87
2024-03-12T03:12:00,axn,26.91
2024-03-12T03:13:00,axn,26.72
2024-03-12T03:14:00,axn,26.79
2024-03-12T03:15:00,axn,26.68
2024-03-12T03:16:00,axn,26.64
2024-03-12T03:17:00,axn,26.54
2024-03-12T03:18:00,axn,26.45
2024-03-12T03:19:00,axn,26.45
2024-03-12T03:20:00,axn,26.85
2024-03-12T03:21:00,axn,26.58
2024-03-12T03:22:00,axn,26.78
2024-03-12T03:23:00,axn,26.70
2024-03-12T03:24:00,axn,26.88
2024-03-12T03:25:00,axn,26.78
2024-03-12T03:26:00,axn,26.76
2024-03-12T03:27:00,axn,26.80
2024-03-12T03:28:00,axn,27.22
2024-03-12T03:29:00,axn,27.28
2024-03-12T03:30:00,axn,27.43
2024-03-12T03:31:00,axn,27.39
2024-03-12T03:32:00,axn,27.39
2024-03-12T03:33:00,axn,27.43
2024-03-12T03:34:00,axn,27.36
2024-03-12T03:35:00,axn,27.61
2024-03-12T03:36:00,axn,32.30
2024-03-12T03:37:00,axn,27.18
2024-03-12T03:38:00,axn,27.30
2024-03-12T03:39:00,axn,27.44
2024-03-12T03:40:00,axn,27.35
2024-03-12T03:41:00,axn,27.06
2024-03-12T03:42:00,axn,27.14
2024-03-12T03:43:00,axn,27.07
2024-03-12T03:44:00,axn,27.00
2024-03-12T03:45:00,axn,27.26
2024-03-12T03:46:00,axn,26.97
2024-03-12T03:47:00,axn,27.00
2024-03-12T03:48:00,axn,26.96
2024-03-12T03:49:00,axn,27.21
2024-03-12T03:50:00,axn,26.89
2024-03-12T03:51:00,axn,26.99
2024-03-12T03:52:00,axn,26.98
2024-03-12T03:53:00,axn,26.92
2024-03-12T03:54:00,axn,26.91
2024-03-12T03:55:00,axn,27.06
2024-03-12T03:56:00,axn,27.07
2024-03-12T03:57:00,axn,27.11
2024-03-12T03:58:00,axn,27.26
2024-03-12T03:59:00,axn,27.40
2024-03-12T04:00:00,axn,27.14
2024-03-12T04:01:00,axn,27.32
2024-03-12T04:02:00,axn,27.40
2024-03-12T04:03:00,axn,27.22
2024-03-12T04:04:00,axn,27.44
2024-03-12T04:05:00,axn,27.07
2024-03-12T04:06:00,axn,27.22
2024-03-12T04:07:00,axn,27.07
2024-03-12T04:08:00,axn,27.11
2024-03-12T04:09:00,axn,27.22
2024-03-12T04:10:00,axn,27.32
2024-03-12T04:11:00,axn,27.37
2024-03-12T04:12:00,axn,27.12
2024-03-12T04:13:00,axn,27.13
2024-03-12T04:14:00,axn,27.21
2024-03-12T04:15:00,axn,27.17
2024-03-12T04:16:00,axn,27.17
2024-03-12T04:17:00,axn,27.13
2024-03-12T04:18:00,axn,27.07
2024-03-12T04:19:00,axn,27.36
2024-03-12T04:20:00,axn,27.15
2024-03-12T04:21:00,axn,26.98
2024-03-12T04:22:00,axn,27.09
2024-03-12T04:23:00,axn,27.18
2024-03-12T04:24:00,axn,27.23
2024-03-12T04:25:00,axn,27.22
2024-03-12T04:26:00,axn,27.17
2024-03-12T04:27:00,axn,27.13
2024-03-12T04:28:00,axn,26.98
2024-03-12T04:29:00,axn,27.03
2024-03-12T04:30:00,axn,32.98
2024-03-12T04:31:00,axn,33.04
2024-03-12T04:32:00,axn,32.94
2024-03-12T04:33:00,axn,33.00
2024-03-12T04:34:00,axn,27.01
2024-03-12T04:35:00,axn,27.04
2024-03-12T04:36:00,axn,27.01
2024-03-12T04:37:00,axn,27.04
2024-03-12T04:38:00,axn,27.03
2024-03-12T04:39:00,axn,27.23
2024-03-12T04:40:00,axn,27.18
2024-03-12T04:41:00,axn,27.04
2024-03-12T04:42:00,axn,27.34
2024-03-12T04:43:00,axn,27.28
2024-03-12T04:44:00,axn,27.29
2024-03-12T04:45:00,axn,27.24
2024-03-12T04:46:00,axn,27.18
2024-03-12T04:47:00,axn,27.35
2024-03-12T04:48:00,axn,27.44
2024-03-12T04:49:00,axn,27.46
2024-03-12T04:50:00,axn,27.53
2024-03-12T04:51:00,axn,27.30
2024-03-12T04:52:00,axn,27.61
2024-03-12T04:53:00,axn,27.25
2024-03-12T04:54:00,axn,27.48
2024-03-12T04:55:00,axn,27.74
2024-03-12T04:56:00,axn,27.54
2024-03-12T04:57:00,axn,27.52
2024-03-12T04:58:00,axn,27.44
2024-03-12T04:59:00,axn,27.32
2024-03-12T05:00:00,axn,28.43
2024-03-12T05:01:00,axn,29.16
2024-03-12T05:02:00,axn,36.62
2024-03-12T05:03:00,axn,40.89
2024-03-12T05:04:00,axn,42.12
2024-03-12T05:05:00,axn,41.45
2024-03-12T05:06:00,axn,40.55
2024-03-12T05:07:00,axn,41.19
2024-03-12T05:08:00,axn,40.67
2024-03-12T05:09:00,axn,40.87
2024-03-12T05:10:00,axn,37.07
2024-03-12T05:11:00,axn,36.24
2024-03-12T05:12:00,axn,36.51
2024-03-12T05:13:00,axn,35.37
2024-03-12T05:14:00,axn,35.83
2024-03-12T05:15:00,axn,35.90
2024-03-12T05:16:00,axn,35.71
2024-03-12T05:17:00,axn,34.68
2024-03-12T05:18:00,axn,35.16
2024-03-12T05:19:00,axn,35.73
2024-03-12T05:20:00,axn,35.18
2024-03-12T05:21:00,axn,35.38
2024-03-12T05:22:00,axn,35.22
2024-03-12T05:23:00,axn,35.26
2024-03-12T05:24:00,axn,39.28
2024-03-12T05:25:00,axn,34.33
2024-03-12T05:26:00,axn,34.45
2024-03-12T05:27:00,axn,34.74
2024-03-12T05:28:00,axn,34.19
2024-03-12T05:29:00,axn,33.97
2024-03-12T05:30:00,axn,34.28
2024-03-12T05:31:00,axn,35.38
2024-03-12T05:32:00,axn,35.76
2024-03-12T05:33:00,axn,35.39
2024-03-12T05:34:00,axn,35.54
2024-03-12T05:35:00,axn,35.00
2024-03-12T05:36:00,axn,35.20
2024-03-12T05:37:00,axn,35.43
2024-03-12T05:38:00,axn,35.62
2024-03-12T05:39:00,axn,36.42
2024-03-12T05:40:00,axn,35.81
2024-03-12T05:41:00,axn,35.28
2024-03-12T05:42:00,axn,35.70
2024-03-12T05:43:00,axn,35.85
2024-03-12T05:44:00,axn,36.25
2024-03-12T05:45:00,axn,36.35
2024-03-12T05:46:00,axn,36.43
2024-03-12T05:47:00,axn,36.34
2024-03-12T05:48:00,axn,37.43
2024-03-12T05:49:00,axn,37.41
2024-03-12T05:50:00,axn,41.52
2024-03-12T05:51:00,axn,40.37
2024-03-12T05:52:00,axn,37.83
2024-03-12T05:53:00,axn,41.51
2024-03-12T05:54:00,axn,39.24
2024-03-12T05:55:00,axn,39.24
2024-03-12T05:56:00,axn,39.56
2024-03-12T05:57:00,axn,39.56
2024-03-12T05:58:00,axn,39.78
2024-03-12T05:59:00,axn,40.03
2024-03-12T06:00:00,axn,39.28
2024-03-12T06:01:00,axn,39.41
2024-03-12T06:02:00,axn,38.55
2024-03-12T06:03:00,axn,38.79
2024-03-12T06:04:00,axn,38.43
2024-03-12T06:05:00,axn,38.39
2024-03-12T06:06:00,axn,38.41
2024-03-12T06:07:00,axn,38.50
2024-03-12T06:08:00,axn,39.37
2024-03-12T06:09:00,axn,39.50
2024-03-12T06:10:00,axn,39.48
2024-03-12T06:11:00,axn,39.25
2024-03-12T06:12:00,axn,38.95
2024-03-12T06:13:00,axn,39.05
2024-03-12T06:14:00,axn,39.18
2024-03-12T06:15:00,axn,38.06
2024-03-12T06:16:00,axn,37.76
2024-03-12T06:17:00,axn,37.82
2024-03-12T06:18:00,axn,37.73
2024-03-12T06:19:00,axn,42.50
2024-03-12T06:20:00,axn,38.20
2024-03-12T06:21:00,axn,38.88
2024-03-12T06:22:00,axn,38.19
2024-03-12T06:23:00,axn,37.50
2024-03-12T06:24:00,axn,37.85
2024-03-12T06:25:00,axn,38.55
2024-03-12T06:26:00,axn,38.39
2024-03-12T06:27:00,axn,38.52
2024-03-12T06:28:00,axn,48.16
2024-03-12T06:29:00,axn,47.43
2024-03-12T06:30:00,axn,47.62
2024-03-12T06:31:00,axn,48.10
2024-03-12T06:32:00,axn,38.43
2024-03-12T06:33:00,axn,38.61
2024-03-12T06:34:00,axn,38.30
2024-03-12T06:35:00,axn,52.12
2024-03-12T06:36:00,axn,52.53
2024-03-12T06:37:00,axn,52.32
2024-03-12T06:38:00,axn,51.99
2024-03-12T06:39:00,axn,51.91
2024-03-12T06:40:00,axn,37.48
2024-03-12T06:41:00,axn,37.27
2024-03-12T06:42:00,axn,37.57
2024-03-12T06:43:00,axn,37.80
2024-03-12T06:44:00,axn,38.29
2024-03-12T06:45:00,axn,38.36
2024-03-12T06:46:00,axn,38.64
2024-03-12T06:47:00,axn,37.31
2024-03-12T06:48:00,axn,37.26
2024-03-12T06:49:00,axn,42.40
2024-03-12T06:50:00,axn,37.50
2024-03-12T06:51:00,axn,37.51
2024-03-12T06:52:00,axn,37.26
2024-03-12T06:53:00,axn,36.97
2024-03-12T06:54:00,axn,37.01
2024-03-12T06:55:00,axn,37.30
2024-03-12T06:56:00,axn,53.54
2024-03-12T06:57:00,axn,37.30
2024-03-12T06:58:00,axn,38.01
2024-03-12T06:59:00,axn,37.86
2024-03-12T07:00:00,axn,38.23
2024-03-12T07:01:00,axn,36.82
2024-03-12T07:02:00,axn,37.51
2024-03-12T07:03:00,axn,38.88
2024-03-12T07:04:00,axn,38.38
2024-03-12T07:05:00,axn,38.52
2024-03-12T07:06:00,axn,38.64
2024-03-12T07:07:00,axn,38.92
2024-03-12T07:08:00,axn,38.54
2024-03-12T07:09:00,axn,38.57
2024-03-12T07:10:00,axn,37.86
2024-03-12T07:11:00,axn,38.76
2024-03-12T07:12:00,axn,38.61
2024-03-12T07:13:00,axn,38.38
2024-03-12T07:14:00,axn,38.78
2024-03-12T07:15:00,axn,38.74
2024-03-12T07:16:00,axn,39.48
2024-03-12T07:17:00,axn,39.75
2024-03-12T07:18:00,axn,44.56
2024-03-12T07:19:00,axn,44.75
2024-03-12T07:20:00,axn,40.15
2024-03-12T07:21:00,axn,40.12
2024-03-12T07:22:00,axn,39.42
2024-03-12T07:23:00,axn,40.03
2024-03-12T07:24:00,axn,39.35
2024-03-12T07:25:00,axn,39.98
2024-03-12T07:26:00,axn,39.59
2024-03-12T07:27:00,axn,40.72
2024-03-12T07:28:00,axn,39.76
2024-03-12T07:29:00,axn,40.09
2024-03-12T07:30:00,axn,42.03
2024-03-12T07:31:00,axn,40.58
2024-03-12T07:32:00,axn,41.84
2024-03-12T07:33:00,axn,42.92
2024-03-12T07:34:00,axn,43.38
2024-03-12T07:35:00,axn,42.80
2024-03-12T07:36:00,axn,45.33
2024-03-12T07:37:00,axn,45.67
2024-03-12T07:38:00,axn,45.29
2024-03-12T07:39:00,axn,43.17
2024-03-12T07:40:00,axn,59.60
2024-03-12T07:41:00,axn,43.93
2024-03-12T07:42:00,axn,44.05
2024-03-12T07:43:00,axn,44.40
2024-03-12T07:44:00,axn,45.73
2024-03-12T07:45:00,axn,43.04
2024-03-12T07:46:00,axn,43.08
2024-03-12T07:47:00,axn,47.45
2024-03-12T07:48:00,axn,47.50
2024-03-12T07:49:00,axn,43.41
2024-03-12T07:50:00,axn,43.01
2024-03-12T07:51:00,axn,44.19
2024-03-12T07:52:00,axn,62.14
2024-03-12T07:53:00,axn,44.22
2024-03-12T07:54:00,axn,43.55
2024-03-12T07:55:00,axn,45.15
2024-03-12T07:56:00,axn,43.61
2024-03-12T07:57:00,axn,43.63
2024-03-12T07:58:00,axn,44.78
2024-03-12T07:59:00,axn,43.80
2024-03-12T08:00:00,axn,43.91
2024-03-12T08:01:00,axn,45.48
2024-03-12T08:02:00,axn,47.00
2024-03-12T08:03:00,axn,46.80
2024-03-12T08:04:00,axn,45.92
2024-03-12T08:05:00,axn,48.14
2024-03-12T08:06:00,axn,47.88
2024-03-12T08:07:00,axn,48.76
2024-03-12T08:08:00,axn,45.85
2024-03-12T08:09:00,axn,47.79
2024-03-12T08:10:00,axn,48.43
2024-03-12T08:11:00,axn,49.29
2024-03-12T08:12:00,axn,48.98
2024-03-12T08:13:00,axn,48.43
2024-03-12T08:14:00,axn,46.41
2024-03-12T08:15:00,axn,52.38
2024-03-12T08:16:00,axn,53.39
2024-03-12T08:17:00,axn,50.81
2024-03-12T08:18:00,axn,50.91
2024-03-12T08:19:00,axn,49.46
2024-03-12T08:20:00,axn,49.07
2024-03-12T08:21:00,axn,49.46
2024-03-12T08:22:00,axn,49.39
2024-03-12T08:23:00,axn,62.33
2024-03-12T08:24:00,axn,48.55
2024-03-12T08:25:00,axn,47.29
2024-03-12T08:26:00,axn,50.60
2024-03-12T08:27:00,axn,48.71
2024-03-12T08:28:00,axn,48.25
2024-03-12T08:29:00,axn,49.73
2024-03-12T08:30:00,axn,48.56
2024-03-12T08:31:00,axn,49.67
2024-03-12T08:32:00,axn,48.09
2024-03-12T08:33:00,axn,50.71
2024-03-12T08:34:00,axn,53.46
2024-03-12T08:35:00,axn,50.13
2024-03-12T08:36:00,axn,47.83
2024-03-12T08:37:00,axn,48.51
2024-03-12T08:38:00,axn,48.08
2024-03-12T08:39:00,axn,47.76
2024-03-12T08:40:00,axn,47.74
2024-03-12T08:41:00,axn,47.70
2024-03-12T08:42:00,axn,52.47
2024-03-12T08:43:00,axn,52.82
2024-03-12T08:44:00,axn,48.89
2024-03-12T08:45:00,axn,51.09
2024-03-12T08:46:00,axn,50.56
2024-03-12T08:47:00,axn,50.69
2024-03-12T08:48:00,axn,49.13
2024-03-12T08:49:00,axn,50.14
2024-03-12T08:50:00,axn,49.56
2024-03-12T08:51:00,axn,51.38
2024-03-12T08:52:00,axn,50.04
2024-03-12T08:53:00,axn,49.83
2024-03-12T08:54:00,axn,52.00
2024-03-12T08:55:00,axn,50.38
2024-03-12T08:56:00,axn,51.59
2024-03-12T08:57:00,axn,48.92
2024-03-12T08:58:00,axn,49.46
2024-03-12T08:59:00,axn,49.05
2024-03-12T09:00:00,axn,49.16
2024-03-12T09:01:00,axn,52.07
2024-03-12T09:02:00,axn,50.11
2024-03-12T09:03:00,axn,50.72
2024-03-12T09:04:00,axn,51.66
2024-03-12T09:05:00,axn,51.88
2024-03-12T09:06:00,axn,51.67
2024-03-12T09:07:00,axn,51.16
2024-03-12T09:08:00,axn,49.50
2024-03-12T09:09:00,axn,50.37
2024-03-12T09:10:00,axn,51.56
2024-03-12T09:11:00,axn,55.17
2024-03-12T09:12:00,axn,50.28
2024-03-12T09:13:00,axn,50.01
2024-03-12T09:14:00,axn,49.76
2024-03-12T09:15:00,axn,50.70
2024-03-12T09:16:00,axn,49.39
2024-03-12T09:17:00,axn,50.99
2024-03-12T09:18:00,axn,48.50
2024-03-12T09:19:00,axn,51.66
2024-03-12T09:20:00,axn,50.51
2024-03-12T09:21:00,axn,50.25
2024-03-12T09:22:00,axn,50.40
2024-03-12T09:23:00,axn,48.07
2024-03-12T09:24:00,axn,49.72
2024-03-12T09:25:00,axn,48.81
2024-03-12T09:26:00,axn,63.72
2024-03-12T09:27:00,axn,64.87
2024-03-12T09:28:00,axn,64.70
2024-03-12T09:29:00,axn,64.53
2024-03-12T09:30:00,axn,63.29
2024-03-12T09:31:00,axn,62.21
2024-03-12T09:32:00,axn,48.91
2024-03-12T09:33:00,axn,48.92
2024-03-12T09:34:00,axn,49.15
2024-03-12T09:35:00,axn,48.52
2024-03-12T09:36:00,axn,54.71
2024-03-12T09:37:00,axn,55.73
2024-03-12T09:38:00,axn,49.14
2024-03-12T09:39:00,axn,49.07
2024-03-12T09:40:00,axn,48.63
2024-03-12T09:41:00,axn,48.93
2024-03-12T09:42:00,axn,56.79
2024-03-12T09:43:00,axn,58.08
2024-03-12T09:44:00,axn,57.52
2024-03-12T09:45:00,axn,58.87
2024-03-12T09:46:00,axn,56.56
2024-03-12T09:47:00,axn,57.36
2024-03-12T09:48:00,axn,59.27
2024-03-12T09:49:00,axn,56.57
2024-03-12T09:50:00,axn,56.77
2024-03-12T09:51:00,axn,56.18
2024-03-12T09:52:00,axn,56.02
2024-03-12T09:53:00,axn,73.52
2024-03-12T09:54:00,axn,57.18
2024-03-12T09:55:00,axn,58.44
2024-03-12T09:56:00,axn,56.36
2024-03-12T09:57:00,axn,56.42
2024-03-12T09:58:00,axn,60.47
2024-03-12T09:59:00,axn,60.55
2024-03-12T10:00:00,axn,57.44
2024-03-12T10:01:00,axn,57.16
2024-03-12T10:02:00,axn,58.65
2024-03-12T10:03:00,axn,58.28
2024-03-12T10:04:00,axn,58.20
2024-03-12T10:05:00,axn,59.18
2024-03-12T10:06:00,axn,58.23
2024-03-12T10:07:00,axn,58.14
2024-03-12T10:08:00,axn,59.28
2024-03-12T10:09:00,axn,59.14
2024-03-12T10:10:00,axn,59.76
2024-03-12T10:11:00,axn,59.06
2024-03-12T10:12:00,axn,59.18
2024-03-12T10:13:00,axn,58.66
2024-03-12T10:14:00,axn,58.90
2024-03-12T10:15:00,axn,58.36
2024-03-12T10:16:00,axn,58.77
2024-03-12T10:17:00,axn,75.27
2024-03-12T10:18:00,axn,58.01
2024-03-12T10:19:00,axn,56.47
2024-03-12T10:20:00,axn,69.07
2024-03-12T10:21:00,axn,69.33
2024-03-12T10:22:00,axn,68.14
2024-03-12T10:23:00,axn,71.46
2024-03-12T10:24:00,axn,71.65
2024-03-12T10:25:00,axn,57.89
2024-03-12T10:26:00,axn,72.63
2024-03-12T10:27:00,axn,56.86
2024-03-12T10:28:00,axn,58.52
2024-03-12T10:29:00,axn,58.96
2024-03-12T10:30:00,axn,58.90
2024-03-12T10:31:00,axn,58.70
2024-03-12T10:32:00,axn,65.27
2024-03-12T10:33:00,axn,58.58
2024-03-12T10:34:00,axn,57.53
2024-03-12T10:35:00,axn,56.81
2024-03-12T10:36:00,axn,55.85
2024-03-12T10:37:00,axn,57.69
2024-03-12T10:38:00,axn,58.54
2024-03-12T10:39:00,axn,59.18
2024-03-12T10:40:00,axn,58.23
2024-03-12T10:41:00,axn,57.28
2024-03-12T10:42:00,axn,58.43
2024-03-12T10:43:00,axn,56.44
2024-03-12T10:44:00,axn,57.54
2024-03-12T10:45:00,axn,61.17
2024-03-12T10:46:00,axn,58.77
2024-03-12T10:47:00,axn,58.09
2024-03-12T10:48:00,axn,57.08
2024-03-12T10:49:00,axn,62.52
2024-03-12T10:50:00,axn,61.23
2024-03-12T10:51:00,axn,58.45
2024-03-12T10:52:00,axn,57.13
2024-03-12T10:53:00,axn,58.01
2024-03-12T10:54:00,axn,58.69
2024-03-12T10:55:00,axn,57.98
2024-03-12T10:56:00,axn,55.42
2024-03-12T10:57:00,axn,58.01
2024-03-12T10:58:00,axn,58.49
2024-03-12T10:59:00,axn,58.11
2024-03-12T11:00:00,axn,58.30
2024-03-12T11:01:00,axn,57.85
2024-03-12T11:02:00,axn,63.58
2024-03-12T11:03:00,axn,57.87
2024-03-12T11:04:00,axn,58.41
2024-03-12T11:05:00,axn,62.59
2024-03-12T11:06:00,axn,61.28
2024-03-12T11:07:00,axn,56.02
2024-03-12T11:08:00,axn,57.30
2024-03-12T11:09:00,axn,56.78
2024-03-12T11:10:00,axn,56.38
2024-03-12T11:11:00,axn,58.13
2024-03-12T11:12:00,axn,57.60
2024-03-12T11:13:00,axn,55.47
2024-03-12T11:14:00,axn,56.20
2024-03-12T11:15:00,axn,62.76
2024-03-12T11:16:00,axn,62.54
2024-03-12T11:17:00,axn,62.79
2024-03-12T11:18:00,axn,57.75
2024-03-12T11:19:00,axn,55.61
2024-03-12T11:20:00,axn,56.76
2024-03-12T11:21:00,axn,56.73
2024-03-12T11:22:00,axn,49.75
2024-03-12T11:23:00,axn,49.81
2024-03-12T11:24:00,axn,47.56
2024-03-12T11:25:00,axn,49.03
2024-03-12T11:26:00,axn,54.14
2024-03-12T11:27:00,axn,49.48
2024-03-12T11:28:00,axn,49.39
2024-03-12T11:29:00,axn,49.73
2024-03-12T11:30:00,axn,49.81
2024-03-12T11:31:00,axn,49.78
2024-03-12T11:32:00,axn,47.64
2024-03-12T11:33:00,axn,50.11
2024-03-12T11:34:00,axn,48.44
2024-03-12T11:35:00,axn,48.71
2024-03-12T11:36:00,axn,50.38
2024-03-12T11:37:00,axn,48.82
2024-03-12T11:38:00,axn,50.51
2024-03-12T11:39:00,axn,50.08
2024-03-12T11:40:00,axn,49.46
2024-03-12T11:41:00,axn,50.00
2024-03-12T11:42:00,axn,49.88
2024-03-12T11:43:00,axn,55.34
2024-03-12T11:44:00,axn,54.06
2024-03-12T11:45:00,axn,48.26
2024-03-12T11:46:00,axn,50.48
2024-03-12T11:47:00,axn,50.60
2024-03-12T11:48:00,axn,48.40
2024-03-12T11:49:00,axn,48.75
2024-03-12T11:50:00,axn,48.50
2024-03-12T11:51:00,axn,48.71
2024-03-12T11:52:00,axn,49.41
2024-03-12T11:53:00,axn,47.99
2024-03-12T11:54:00,axn,48.82
2024-03-12T11:55:00,axn,49.89
2024-03-12T11:56:00,axn,48.64
2024-03-12T11:57:00,axn,48.57
2024-03-12T11:58:00,axn,48.96
2024-03-12T11:59:00,axn,48.46
2024-03-12T12:00:00,axn,47.85
2024-03-12T12:01:00,axn,49.29
2024-03-12T12:02:00,axn,48.52
2024-03-12T12:03:00,axn,53.21
2024-03-12T12:04:00,axn,53.30
2024-03-12T12:05:00,axn,49.77
2024-03-12T12:06:00,axn,49.32
2024-03-12T12:07:00,axn,49.01
2024-03-12T12:08:00,axn,66.55
2024-03-12T12:09:00,axn,63.04
2024-03-12T12:10:00,axn,63.45
2024-03-12T12:11:00,axn,62.94
2024-03-12T12:12:00,axn,62.92
2024-03-12T12:13:00,axn,62.66
2024-03-12T12:14:00,axn,62.68
2024-03-12T12:15:00,axn,49.52
2024-03-12T12:16:00,axn,48.87
2024-03-12T12:17:00,axn,48.96
2024-03-12T12:18:00,axn,48.82
2024-03-12T12:19:00,axn,48.56
2024-03-12T12:20:00,axn,48.80
2024-03-12T12:21:00,axn,50.98
2024-03-12T12:22:00,axn,53.56
2024-03-12T12:23:00,axn,48.76
2024-03-12T12:24:00,axn,49.07
2024-03-12T12:25:00,axn,48.65
2024-03-12T12:26:00,axn,62.53
2024-03-12T12:27:00,axn,48.87
2024-03-12T12:28:00,axn,48.74
2024-03-12T12:29:00,axn,48.45
2024-03-12T12:30:00,axn,49.07
2024-03-12T12:31:00,axn,48.45
2024-03-12T12:32:00,axn,49.02
2024-03-12T12:33:00,axn,48.16
2024-03-12T12:34:00,axn,48.62
2024-03-12T12:35:00,axn,50.61
2024-03-12T12:36:00,axn,51.05
2024-03-12T12:37:00,axn,48.42
2024-03-12T12:38:00,axn,48.23
2024-03-12T12:39:00,axn,48.80
2024-03-12T12:40:00,axn,48.68
2024-03-12T12:41:00,axn,52.83
2024-03-12T12:42:00,axn,53.21
2024-03-12T12:43:00,axn,48.88
2024-03-12T12:44:00,axn,48.66
2024-03-12T12:45:00,axn,49.61
2024-03-12T12:46:00,axn,47.85
2024-03-12T12:47:00,axn,48.00
2024-03-12T12:48:00,axn,47.98
2024-03-12T12:49:00,axn,48.52
2024-03-12T12:50:00,axn,48.22
2024-03-12T12:51:00,axn,47.70
2024-03-12T12:52:00,axn,48.17
2024-03-12T12:53:00,axn,48.52
2024-03-12T12:54:00,axn,48.17
2024-03-12T12:55:00,axn,48.30
2024-03-12T12:56:00,axn,48.37
2024-03-12T12:57:00,axn,48.63
2024-03-12T12:58:00,axn,48.63
2024-03-12T12:59:00,axn,48.58
2024-03-12T13:00:00,axn,48.60
2024-03-12T13:01:00,axn,48.84
2024-03-12T13:02:00,axn,53.22
2024-03-12T13:03:00,axn,52.94
2024-03-12T13:04:00,axn,48.48
2024-03-12T13:05:00,axn,48.75
2024-03-12T13:06:00,axn,48.53
2024-03-12T13:07:00,axn,65.45
2024-03-12T13:08:00,axn,63.87
2024-03-12T13:09:00,axn,63.06
2024-03-12T13:10:00,axn,48.42
2024-03-12T13:11:00,axn,52.59
2024-03-12T13:12:00,axn,48.08
2024-03-12T13:13:00,axn,48.22
2024-03-12T13:14:00,axn,48.25
2024-03-12T13:15:00,axn,48.11
2024-03-12T13:16:00,axn,47.95
2024-03-12T13:17:00,axn,48.08
2024-03-12T13:18:00,axn,48.41